Location: Follega
(52.8850°N, 5.7362°E)
Time: 21:45:05
(UTC+00:00)

CARTOSAT-1 - Pass Details

Date: 10 October 2020
Orbit: 616 x 619 km, 97.8° (Epoch: 22 October)

Event Time Altitude Azimuth Distance (km) Brightness Sun altitude
Exits shadow 20:11:05 15° 9° (N) 1,673 6.0 -29.8°
Drops below altitude 10° 20:12:00 10° 2° (N) 1,993 6.5 -29.9°
Sets 20:14:21 0° 353° (N) 2,903 7.5 -30.2°
